Lid_Strength_Index
3 3 3 3 3 3 3 3 3 3 3 2 3 3 3 2 3 4 6 3 2 -0 -1 4 4 3 3 4 3 3 8 9 8 8 7 5 6 4 3 4 4 3 4 3 2
3 3 3 3 3 3 3 3 3 3 2 2 2 3 3 3 4 5 2 -0 -0 0 3 5 6 5 5 5 4 5 8 8 5 5 7 6 6 5 5 5 5 4 3 2 2
3 3 3 3 3 3 3 3 3 3 3 2 2 3 3 3 6 5 -2 -1 -1 0 3 4 5 5 6 5 5 5 7 6 5 5 5 6 6 5 7 6 5 5 4 3 3
4 4 3 3 3 3 3 3 3 3 3 3 3 2 3 4 10 5 -2 -2 -2 2 4 5 5 7 7 7 5 7 5 5 5 5 5 6 5 7 6 6 4 3 3 3 3
4 4 4 4 3 3 3 3 3 3 3 3 3 3 4 6 6 2 -2 -2 1 3 5 5 6 7 8 6 6 6 5 5 5 5 6 5 6 7 7 5 4 5 4 4 4
4 4 4 4 4 3 3 4 3 3 4 3 3 3 5 9 1 1 1 2 2 3 5 5 6 5 6 6 6 5 5 5 5 5 5 6 6 6 6 4 4 5 5 5 4
4 4 4 4 4 4 4 4 4 3 3 3 3 4 7 6 1 0 2 3 2 2 5 4 4 5 5 6 4 5 7 6 7 6 7 5 8 8 6 5 6 5 5 4 5
4 4 4 4 4 4 4 4 4 4 3 3 3 4 9 2 2 2 1 3 2 0 2 3 3 4 4 4 5 7 7 10 7 6 6 7 11 6 5 5 6 5 5 4 4
4 4 4 4 4 4 4 4 4 3 3 3 4 5 9 1 4 2 1 4 2 1 1 2 3 5 4 7 8 7 12 11 10 6 7 8 10 6 5 5 6 6 5 5 5
4 4 4 4 4 3 4 3 3 3 3 3 4 7 5 6 2 2 1 3 4 3 4 5 5 7 6 8 11 10 10 11 12 9 7 9 9 7 5 5 6 6 6 6 5
3 3 3 3 3 3 4 5 6 6 5 7 7 7 6 2 1 3 2 4 3 4 7 6 8 9 8 7 7 8 10 10 10 7 9 9 10 8 6 6 6 6 6 6 6
4 4 3 3 2 2 3 7 5 5 9 5 5 5 3 3 5 3 3 6 6 8 6 7 9 7 6 6 7 8 10 11 9 8 8 9 10 7 6 6 6 6 7 6 7
4 3 3 2 1 2 2 2 -0 1 8 7 5 5 4 3 6 5 5 6 7 8 7 9 8 6 7 7 8 8 9 10 10 8 8 9 11 9 7 7 6 5 5 5 6
3 2 1 1 2 1 2 1 -0 1 12 9 7 6 4 4 6 3 4 6 6 8 7 7 6 7 7 8 8 10 7 8 8 9 12 8 14 9 7 7 7 6 6 6 6
2 1 -0 -0 2 3 1 -1 -0 3 20 7 7 2 4 6 5 5 3 6 8 7 7 9 7 8 8 8 7 8 7 8 8 9 10 10 11 10 7 9 8 8 7 7 6
1 -0 -0 1 1 0 -1 -0 1 13 18 9 6 7 7 6 6 5 5 5 4 7 6 7 5 6 7 6 6 6 8 8 8 9 13 10 11 11 9 8 7 6 7 6 6
0 -0 0 0 3 -0 -0 3 14 17 7 9 9 7 8 9 8 7 8 9 9 10 10 8 8 6 6 8 6 7 9 13 14 14 14 9 11 10 7 6 6 6 5 5 4
0 0 0 -0 -1 -0 2 9 17 10 10 8 10 11 10 8 8 8 9 10 8 8 10 11 12 8 6 7 8 8 9 12 16 15 13 10 12 10 6 5 5 5 4 4 4
1 0 1 0 -0 1 6 14 12 10 8 10 10 14 13 8 8 9 9 9 10 8 10 11 11 7 6 6 6 8 10 8 11 11 12 11 10 7 6 6 5 5 5 5 5
1 2 3 -1 -1 2 10 12 9 6 7 9 15 13 15 10 10 11 10 7 10 6 6 8 11 8 7 6 6 7 6 11 11 17 19 12 12 12 9 7 6 6 6 5 4
2 5 2 -1 1 6 13 10 8 6 6 10 13 15 14 11 9 11 10 7 8 7 6 7 9 10 7 8 9 9 9 9 9 11 15 17 17 8 8 7 7 6 5 5 4
3 9 1 0 9 9 12 9 7 8 6 9 10 11 12 12 12 12 11 8 6 7 8 7 9 13 10 7 6 7 8 8 12 13 11 16 15 7 6 6 6 6 5 4 4
6 6 0 2 12 12 9 9 8 9 8 8 9 10 10 12 15 12 9 6 6 8 8 7 10 15 13 9 7 8 8 8 8 10 12 14 15 7 7 6 5 6 5 4 4
6 9 5 5 6 10 11 11 11 7 8 7 9 9 10 12 11 12 10 7 7 7 6 6 9 12 15 11 8 10 9 8 9 12 12 13 12 9 8 8 6 5 5 4 4
5 7 6 10 10 9 9 10 11 11 8 8 10 10 11 13 13 13 11 8 7 7 6 7 12 11 11 10 8 9 9 8 10 10 11 14 12 10 9 9 6 5 5 5 4
6 8 7 9 8 9 10 12 11 10 10 11 11 10 10 12 12 14 10 9 9 7 8 7 13 11 13 10 10 10 9 8 9 10 10 11 11 8 8 7 8 6 5 5 4
3 4 7 9 9 11 12 12 12 10 8 8 9 10 11 10 9 9 8 7 7 8 9 10 12 14 16 13 11 14 9 9 9 9 10 13 9 7 7 7 7 5 4 4 4